Regional Weather Roundup
Issued by NWS Burlington, VT

Home | Current Version | Previous Version | Text Only | Print | Product List | Glossary On
Versions: 1 2 3 4 5 6 7 8 9 10 11 12 13 14 15 16 17 18 19 20 21 22 23 24 25 26 27 28 29 30 31 32 33 34 35 36 37 38 39 40 41 42 43 44 45 46 47 48 49 50
000
ASUS41 KBTV 222010
RWRBTV
VERMONT REGIONAL WEATHER ROUNDUP
NATIONAL WEATHER SERVICE BURLINGTON VT
300 PM EST WED NOV 22 2017

NOTE: "FAIR" INDICATES FEW OR NO CLOUDS BELOW 12,000 FEET WITH NO
SIGNIFICANT WEATHER AND/OR OBSTRUCTIONS TO VISIBILITY.

* THESE REPORTS ARE NOT UNDER NWS QUALITY CONTROL AND/OR DO NOT
  REPORT WEATHER SUCH AS PRECIPITATION AND FOG.

VTZ001>019-222100-
_____VERMONT_____


CITY           SKY/WX    TMP DP  RH WIND       PRES   REMARKS
BURLINGTON     CLOUDY    37  34  89 CALM      29.96S
MONTPELIER     CLOUDY    33  33 100 NW8       29.94R WCI  26
MORRISVILLE    CLOUDY    34  31  88 N7        29.93S WCI  28
ST. JOHNSBURY*   N/A     36  36 100 MISG      29.89R
LYNDONVILLE*   LGT SNOW  34  32  94 W6        29.90R WCI  29
MIDDLEBURY*    CLOUDY    37  32  84 NW5       29.94R
RUTLAND*       LGT RAIN  35  33  92 NW5       29.93R WCI  31
SPRINGFIELD    CLOUDY    40  35  83 W6        29.90R
HIGHGATE*      CLOUDY    37  33  84 NW5       29.97R
NEWPORT*       LGT SNOW  32  32  99 NW5       29.92S WCI  28
BENNINGTON     CLOUDY    38  32  79 N6        29.93R
SUTTON*          N/A     32 N/A N/A MISG        N/A

_____LAKE CHAMPLAIN_____


CITY           SKY/WX    TMP DP  RH WIND       PRES   REMARKS
BURTON ISLAND*   N/A     39  32  75 N9G16       N/A
COLCHESTER RF*   N/A     39  34  81 NW9G20      N/A
DIAMOND ISL*     N/A     37  34  87 N9          N/A  WCI  31

$$

NYZ007-026>031-035-052-083-087-222100-
_____NORTHERN NEW YORK_____


CITY           SKY/WX    TMP DP  RH WIND       PRES   REMARKS
PLATTSBURGH    CLOUDY    39  29  67 NW6       29.97R
SARANAC LAKE   FLURRIES  30  29  96 VRB7      29.93R WCI  23
MASSENA        CLOUDY    31  26  82 W14G20    30.07R WCI  21
OGDENSBURG*    CLOUDY    30  25  80 NW12      30.07R WCI  21
POTSDAM*       CLOUDY    30  30 100 NW9       30.05R WCI  22
WATERTOWN      CLOUDY    33  29  85 N10       30.07R WCI  25
FT DRUM        CLOUDY    30  26  84 N8        30.04R WCI  22
ALBANY         CLOUDY    42  29  59 NW14G25   29.97R
GLENS FALLS    CLOUDY    41  32  70 N7        29.95R

$$
NHZ002-005-011-222100-
_____NEW HAMPSHIRE_____


CITY           SKY/WX    TMP DP  RH WIND       PRES   REMARKS
LEBANON        CLOUDY    39  36  89 NW5       29.90R
KEENE          CLOUDY    41  40  96 CALM      29.87R
MT WASHINGTON  SNOW      21  21 100 W25         N/A  VSB 1/16WCI   4
PLYMOUTH       DRIZZLE   38  36  93 W10G17    29.84R WCI  30
WHITEFIELD     LGT SNOW  34  33  96 CALM      29.87R VSB 3/4

$$

_____REGIONAL QUEBEC LOCATIONS_____


CITY           SKY/WX    TMP DP  RH WIND       PRES   REMARKS
MONTREAL       CLOUDY    36  28  75 W14G21    29.98R WCI  27
QUEBEC CITY    MOCLDY    36  34  93 SW9       29.88F FOG     WCI  29
SHERBROOKE     LGT SNOW  32  32 100 W6        29.90R WCI  26

_____REGIONAL ONTARIO LOCATIONS_____


CITY           SKY/WX    TMP DP  RH WIND       PRES   REMARKS
OTTAWA         MOSUNNY   30  18  59 NW13G20   30.07R WCI  20

______KEY______
VSB  - VISIBILITY IN MILES
WCI  - WIND CHILL INDEX
HX   - HEAT INDEX
$$
NNNN




USA.gov is the U.S. government's official web portal to all federal, state and local government web resources and services.